Home   Weather   Ljubljana   Past weeks

Flag for Slovenia Past Weather in Ljubljana, Slovenia — Yesterday and Last 2 Weeks

Now
30 °F

Chilly.


Feels Like: 25 °F
Forecast: 22 / 30 °F
Wind: 5 mph from East

Location: Ljubljana / Bezigrad

Current Time: Jan 18, 2017 at 12:39:55 am

Latest Report: Jan 17, 2017 at 11:00 pm


Visibility: N/A

Pressure: 30.39 "Hg

Humidity: 63%

Dew Point: 19 °F

Location of LjubljanaLocation

Past Weather in Ljubljana — Graph

°F

Ljubljana Temperature Yesterday

Maximum temperature yesterday: 34 °F (at 12:00 pm)
Minimum temperature yesterday: 28 °F (at 2:00 am)
Average temperature yesterday: 30 °F

High & Low Weather Summary for the Past Weeks

 TemperatureHumidityPressure
High42 °F (Jan 4, 3:00 pm)98% (Jan 15, 12:00 am)30.54 "Hg (Jan 15, 12:00 am)
Low8 °F (Jan 11, 6:00 am)18% (Jan 5, 12:00 pm)29.44 "Hg (Jan 13, 1:00 pm)
Average26 °F72%30.14 "Hg
* Reported Jan 2 11:00 pm — Jan 17 11:00 pm, Ljubljana, Weather by CustomWeather, © 2017

Note: Actual official high and low records may vary slightly from our data, if they occured in-between our weather recording intervals... More about our weather records

Advertising

Ljubljana Weather History for the Previous 24 Hours

Scroll right to see more
 ConditionsComfort  
Time TempWeatherWind HumidityBarometerVisibility
11:00 pm
Tue, Jan 17
30 °FChilly.5 mph63%30.39 "HgN/A
10:00 pm29 °FPassing clouds.3 mph68%30.40 "Hg9 mi
9:00 pm29 °FSnow flurries. Passing clouds.5 mph72%30.39 "Hg9 mi
8:00 pm29 °FSnow flurries. Overcast.2 mph72%30.39 "Hg7 mi
7:00 pm30 °FSnow flurries. Overcast.5 mph70%30.36 "Hg7 mi
6:00 pm31 °FPassing clouds.5 mph67%30.34 "Hg9 mi
5:00 pm31 °FSnow flurries. Overcast.5 mph66%30.32 "Hg9 mi
4:00 pm32 °FOvercast.6 mph60%30.30 "Hg9 mi
3:00 pm33 °FOvercast.6 mph58%30.28 "Hg19 mi
2:00 pm33 °FOvercast.6 mphN/AN/A19 mi
1:00 pmN/APartly sunny.N/AN/AN/A19 mi
12:00 pm34 °FPartly sunny.7 mph51%30.24 "Hg19 mi
11:00 am33 °FPartly sunny.6 mph52%30.25 "Hg19 mi
10:00 am32 °FPartly sunny.6 mph55%30.25 "Hg16 mi
9:00 am31 °FOvercast.6 mph59%N/A16 mi
8:00 am30 °FOvercast.5 mph59%30.22 "Hg16 mi
7:00 am29 °FSnow flurries. Overcast.6 mph65%30.21 "Hg16 mi
6:00 am29 °FOvercast.6 mph67%30.19 "Hg12 mi
5:00 am29 °FOvercast.5 mph63%30.18 "Hg12 mi
4:00 am29 °FChilly.5 mph66%30.18 "HgN/A
3:00 am29 °FChilly.5 mph66%30.17 "HgN/A
2:00 am28 °FChilly.5 mph68%30.17 "HgN/A
1:00 am29 °FChilly.3 mph68%30.16 "HgN/A
12:00 am29 °FChilly.5 mph71%30.16 "HgN/A
Weather by CustomWeather, © 2017

See weather overviewHow to use our weather pages